TOM1KC LCLK-EGNT

Flight info

Callsign TOM1KC
Flight time N/A
Altitude 30000
Route PHA M31 GENOS DCT PEDER DCT EVENO DCT BENEM UN127 RIKSO DCT STINO DCT PEREN DCT DISOR DCT SKJ DCT LONTA/N0468F320 UL608 DOLEV DCT GOLVA DCT MILGO DCT RENKA DCT RUDNO DCT MASEK DCT BIGGE DCT TENLI DCT MIMVA L602 NALAX L46 RIMTO
Aircraft B738/M-SDE2E3FGHIRWXY/LB1

Departure

Time 2026-05-07 20:16
Airport Larnaca International Airport (LCLK)

Arrival

Time N/A
Airport Newcastle International Airport (EGNT)
Time Latitude Longitude Altitude Speed Heading
2026-05-07 19:40 34.87079 33.61019 -8 ft 0 kts 225°
2026-05-07 19:46 34.87079 33.61020 -8 ft 0 kts 225°
2026-05-07 20:07 34.87081 33.61022 19 ft 2 kts 225°
2026-05-07 20:07 34.87094 33.61040 19 ft 3 kts 237°
2026-05-07 20:07 34.87103 33.61061 24 ft 3 kts 254°
2026-05-07 20:07 34.87107 33.61080 19 ft 3 kts 238°
2026-05-07 20:08 34.87117 33.61092 19 ft 3 kts 176°
2026-05-07 20:08 34.87131 33.61085 23 ft 3 kts 135°
2026-05-07 20:08 34.87144 33.61069 19 ft 1 kts 135°
2026-05-07 20:12 34.87124 33.61093 20 ft 8 kts 135°
2026-05-07 20:12 34.87087 33.61138 19 ft 7 kts 135°
2026-05-07 20:12 34.87049 33.61182 20 ft 9 kts 135°
2026-05-07 20:12 34.86996 33.61246 19 ft 13 kts 135°
2026-05-07 20:13 34.86928 33.61328 17 ft 15 kts 134°
2026-05-07 20:13 34.86840 33.61374 17 ft 15 kts 202°
2026-05-07 20:13 34.86768 33.61290 17 ft 14 kts 225°
2026-05-07 20:13 34.86700 33.61207 19 ft 13 kts 225°
2026-05-07 20:14 34.86636 33.61128 20 ft 13 kts 226°
2026-05-07 20:14 34.86569 33.61050 20 ft 14 kts 213°
2026-05-07 20:14 34.86489 33.61065 22 ft 13 kts 127°
2026-05-07 20:14 34.86492 33.61169 21 ft 13 kts 76°
2026-05-07 20:15 34.86514 33.61273 19 ft 12 kts 75°
2026-05-07 20:15 34.86539 33.61371 18 ft 12 kts 51°
2026-05-07 20:15 34.86608 33.61457 15 ft 21 kts 45°
2026-05-07 20:15 34.86850 33.61752 18 ft 79 kts 45°
2026-05-07 20:16 34.87369 33.62386 17 ft 132 kts 45°
2026-05-07 20:16 34.88122 33.63307 33 ft 173 kts 45°
2026-05-07 20:16 34.88971 33.64382 538 ft 176 kts 44°
2026-05-07 20:16 34.89833 33.65479 1099 ft 182 kts 42°
2026-05-07 20:17 34.90715 33.66587 1750 ft 182 kts 41°
2026-05-07 20:17 34.91610 33.67730 2141 ft 196 kts 48°
2026-05-07 20:17 34.92135 33.69363 2429 ft 219 kts 88°
2026-05-07 20:17 34.91611 33.71124 2710 ft 237 kts 130°
2026-05-07 20:18 34.90162 33.72117 3151 ft 244 kts 172°
2026-05-07 20:18 34.88505 33.71779 3704 ft 246 kts 208°
2026-05-07 20:18 34.87172 33.70500 4304 ft 246 kts 233°
2026-05-07 20:18 34.86515 33.68608 4807 ft 247 kts 271°
2026-05-07 20:19 34.86710 33.66574 5357 ft 245 kts 283°
2026-05-07 20:19 34.86985 33.64510 5905 ft 248 kts 282°
2026-05-07 20:19 34.87239 33.62421 6470 ft 252 kts 279°
2026-05-07 20:19 34.87117 33.60206 6683 ft 275 kts 261°
2026-05-07 20:20 34.86728 33.57869 7007 ft 288 kts 261°
2026-05-07 20:20 34.86342 33.55451 7559 ft 291 kts 262°
2026-05-07 20:20 34.85971 33.53014 8222 ft 292 kts 262°
2026-05-07 20:20 34.85614 33.50576 8844 ft 293 kts 262°
2026-05-07 20:21 34.85263 33.48119 9498 ft 293 kts 261°
2026-05-07 20:21 34.84921 33.45703 10137 ft 294 kts 261°
2026-05-07 20:21 34.84570 33.43211 10465 ft 307 kts 261°
2026-05-07 20:21 34.84196 33.40564 10593 ft 325 kts 262°
2026-05-07 20:22 34.83804 33.37783 10741 ft 343 kts 262°
2026-05-07 20:22 34.83389 33.34846 10865 ft 360 kts 261°
2026-05-07 20:22 34.82952 33.31770 10992 ft 376 kts 261°
2026-05-07 20:22 34.82498 33.28586 11103 ft 390 kts 261°
2026-05-07 20:23 34.82025 33.25273 11364 ft 399 kts 261°
2026-05-07 20:23 34.81553 33.21974 11820 ft 402 kts 261°
2026-05-07 20:23 34.81072 33.18621 12323 ft 403 kts 261°
2026-05-07 20:23 34.80589 33.15249 12817 ft 405 kts 261°
2026-05-07 20:24 34.80104 33.11869 13352 ft 406 kts 261°
2026-05-07 20:24 34.79615 33.08480 13886 ft 407 kts 261°
2026-05-07 20:24 34.79130 33.05072 14307 ft 410 kts 261°
2026-05-07 20:24 34.78646 33.01647 14729 ft 413 kts 261°
2026-05-07 20:25 34.78159 32.98203 15211 ft 414 kts 262°
2026-05-07 20:25 34.77667 32.94735 15684 ft 415 kts 262°
2026-05-07 20:25 34.77175 32.91272 16156 ft 417 kts 262°
2026-05-07 20:25 34.76679 32.87786 16601 ft 419 kts 262°
2026-05-07 20:26 34.76179 32.84293 17061 ft 420 kts 262°
2026-05-07 20:26 34.75676 32.80779 17500 ft 422 kts 262°
2026-05-07 20:26 34.75170 32.77248 17898 ft 425 kts 263°
2026-05-07 20:26 34.74660 32.73697 18309 ft 427 kts 263°
2026-05-07 20:27 34.74146 32.70138 18689 ft 428 kts 263°
2026-05-07 20:27 34.73617 32.66563 19044 ft 430 kts 262°
2026-05-07 20:27 34.73077 32.62994 19376 ft 433 kts 262°
2026-05-07 20:27 34.72535 32.59421 19710 ft 435 kts 262°
2026-05-07 20:28 34.71986 32.55796 20047 ft 437 kts 262°
2026-05-07 20:28 34.71435 32.52157 20384 ft 439 kts 262°
2026-05-07 20:28 34.70951 32.48494 20711 ft 439 kts 266°
2026-05-07 20:28 34.70697 32.44787 21034 ft 440 kts 269°
2026-05-07 20:29 34.70543 32.41065 21353 ft 442 kts 270°
2026-05-07 20:29 34.70409 32.37325 21650 ft 444 kts 270°
2026-05-07 20:29 34.70260 32.33560 21932 ft 446 kts 269°
2026-05-07 20:29 34.70089 32.29795 22228 ft 449 kts 269°
2026-05-07 20:30 34.69896 32.25973 22528 ft 451 kts 269°
2026-05-07 20:30 34.69695 32.22216 22823 ft 453 kts 269°
2026-05-07 20:30 34.69485 32.18388 23107 ft 455 kts 269°
2026-05-07 20:30 34.69271 32.14541 23373 ft 457 kts 269°
2026-05-07 20:31 34.69057 32.10684 23646 ft 459 kts 269°
2026-05-07 20:31 34.68841 32.06805 23885 ft 460 kts 268°
2026-05-07 20:31 34.68624 32.02917 24089 ft 462 kts 268°
2026-05-07 20:31 34.68415 31.99178 24301 ft 464 kts 268°
2026-05-07 20:32 34.68228 31.95264 24536 ft 464 kts 272°
2026-05-07 20:32 34.68519 31.91368 24751 ft 462 kts 283°
2026-05-07 20:32 34.69369 31.87616 25002 ft 460 kts 291°
2026-05-07 20:32 34.70685 31.84075 25219 ft 460 kts 301°
2026-05-07 20:33 34.72328 31.80737 25450 ft 461 kts 302°
2026-05-07 20:33 34.73979 31.77442 25676 ft 462 kts 302°
2026-05-07 20:33 34.75649 31.74100 25962 ft 461 kts 302°
2026-05-07 20:33 34.77304 31.70760 26320 ft 459 kts 302°
2026-05-07 20:34 34.78936 31.67435 26699 ft 457 kts 301°
2026-05-07 20:34 34.80559 31.64109 27032 ft 456 kts 301°
2026-05-07 20:34 34.82170 31.60791 27356 ft 455 kts 301°
2026-05-07 20:34 34.83776 31.57475 27684 ft 454 kts 301°
2026-05-07 20:35 34.85383 31.54155 28038 ft 453 kts 301°
2026-05-07 20:35 34.86957 31.50897 28375 ft 452 kts 301°
2026-05-07 20:35 34.88558 31.47583 28731 ft 451 kts 301°
2026-05-07 20:35 34.90145 31.44296 29092 ft 449 kts 301°
2026-05-07 20:36 34.91727 31.41015 29437 ft 448 kts 301°
2026-05-07 20:36 34.93306 31.37738 29772 ft 447 kts 301°
2026-05-07 20:36 34.94851 31.34527 30103 ft 446 kts 301°
2026-05-07 20:37 34.98029 31.27918 30154 ft 450 kts 301°
2026-05-07 20:37 35.01176 31.21360 30145 ft 445 kts 300°
2026-05-07 20:38 35.04288 31.14860 30153 ft 443 kts 300°
2026-05-07 20:38 35.07395 31.08361 30148 ft 443 kts 300°
2026-05-07 20:39 35.10482 31.01890 30154 ft 443 kts 300°
2026-05-07 20:39 35.13496 30.95562 30151 ft 443 kts 300°
2026-05-07 20:40 35.16600 30.89033 30149 ft 444 kts 300°
2026-05-07 20:40 35.20319 30.83028 30167 ft 444 kts 313°
2026-05-07 20:41 35.24572 30.77575 30153 ft 446 kts 313°
2026-05-07 20:41 35.28852 30.72048 30143 ft 447 kts 313°
2026-05-07 20:42 35.33109 30.66491 30145 ft 447 kts 312°
2026-05-07 20:42 35.37355 30.60917 30141 ft 448 kts 312°
2026-05-07 20:43 35.41585 30.55353 30140 ft 448 kts 312°
2026-05-07 20:43 35.45839 30.49750 30141 ft 448 kts 312°
2026-05-07 20:44 35.50086 30.44146 30142 ft 448 kts 312°
2026-05-07 20:44 35.54313 30.38562 30144 ft 448 kts 312°
2026-05-07 20:45 35.58552 30.32950 30134 ft 448 kts 312°
2026-05-07 20:45 35.62791 30.27330 30138 ft 447 kts 312°
2026-05-07 20:46 35.66984 30.21762 30136 ft 447 kts 312°
2026-05-07 20:46 35.70524 30.17053 30136 ft 447 kts 312°
2026-05-07 20:47 35.74743 30.11432 30133 ft 446 kts 312°
2026-05-07 20:47 35.78954 30.05813 30134 ft 446 kts 313°
2026-05-07 20:48 35.83137 30.00172 30136 ft 446 kts 310°
2026-05-07 20:48 35.86472 29.94141 30137 ft 446 kts 302°
2026-05-07 20:49 35.89742 29.87637 30140 ft 446 kts 302°
2026-05-07 20:49 35.93034 29.81155 30130 ft 446 kts 303°
2026-05-07 20:50 35.96353 29.74685 30138 ft 446 kts 303°
2026-05-07 20:50 35.99672 29.68223 30136 ft 446 kts 303°
2026-05-07 20:51 36.02992 29.61745 30140 ft 446 kts 303°
2026-05-07 20:51 36.06303 29.55270 30146 ft 446 kts 303°
2026-05-07 20:52 36.09613 29.48784 30149 ft 446 kts 303°
2026-05-07 20:52 36.12921 29.42289 30155 ft 446 kts 303°
2026-05-07 20:53 36.16205 29.35832 30156 ft 446 kts 303°
2026-05-07 20:53 36.20012 29.29799 30153 ft 445 kts 317°
2026-05-07 20:54 36.24772 29.24895 30171 ft 445 kts 320°
2026-05-07 20:54 36.29531 29.19990 30162 ft 445 kts 319°
2026-05-07 20:55 36.34238 29.15052 30162 ft 445 kts 319°
2026-05-07 20:55 36.38950 29.10081 30172 ft 445 kts 319°
2026-05-07 20:56 36.43681 29.05082 30171 ft 445 kts 319°
2026-05-07 20:56 36.48400 29.00090 30179 ft 446 kts 319°
2026-05-07 20:57 36.52968 28.95250 30173 ft 446 kts 319°
2026-05-07 20:57 36.57693 28.90236 30161 ft 446 kts 319°
2026-05-07 20:58 36.62413 28.85218 30161 ft 446 kts 319°
2026-05-07 20:58 36.67129 28.80197 30159 ft 446 kts 319°
2026-05-07 20:59 36.71830 28.75199 30156 ft 446 kts 319°
2026-05-07 20:59 36.76578 28.70177 30159 ft 446 kts 319°
2026-05-07 21:00 36.81311 28.65164 30160 ft 445 kts 319°
2026-05-07 21:00 36.85977 28.60209 30166 ft 442 kts 319°
2026-05-07 21:01 36.90674 28.55210 30174 ft 445 kts 319°
2026-05-07 21:01 36.95386 28.50185 30189 ft 446 kts 319°
2026-05-07 21:02 37.00113 28.45137 30190 ft 447 kts 319°
2026-05-07 21:02 37.04823 28.40099 30183 ft 447 kts 319°
2026-05-07 21:03 37.09543 28.35027 30184 ft 441 kts 318°
2026-05-07 21:03 37.14109 28.30029 30187 ft 432 kts 318°
2026-05-07 21:04 37.18669 28.25079 30202 ft 434 kts 319°
2026-05-07 21:04 37.23246 28.20185 30205 ft 435 kts 319°
2026-05-07 21:05 37.27865 28.15226 30207 ft 436 kts 319°
2026-05-07 21:05 37.32472 28.10258 30197 ft 436 kts 319°
2026-05-07 21:06 37.37076 28.05265 30207 ft 435 kts 319°
2026-05-07 21:06 37.41615 28.00331 30199 ft 432 kts 318°
2026-05-07 21:07 37.46056 27.95496 30202 ft 431 kts 318°
2026-05-07 21:07 37.50589 27.90554 30195 ft 430 kts 318°
2026-05-07 21:08 37.55106 27.85621 30181 ft 429 kts 318°
2026-05-07 21:08 37.59615 27.80690 30444 ft 432 kts 318°
2026-05-07 21:08 37.61867 27.78224 30980 ft 423 kts 318°
2026-05-07 21:09 37.64060 27.75821 31704 ft 410 kts 319°
2026-05-07 21:09 37.66197 27.73478 32062 ft 404 kts 319°
2026-05-07 21:09 37.68318 27.71150 32164 ft 402 kts 319°
2026-05-07 21:10 37.72538 27.66511 32180 ft 403 kts 318°